Temperature
16 16 16 16 16 16 16 16 16 15 16 16 15 15 15 15 16 15 15 15 15 15 15 15 15 15 15 15 15 15 15 15 15 15 15 15 15 15 15 15 15 15 15
16 16 16 16 16 16 16 15 15 15 15 15 15 15 15 15 15 15 15 15 15 15 15 15 15 15 15 15 15 15 15 15 15 15 15 15 15 14 14 14 15 15 15
16 16 16 16 16 16 15 15 15 15 15 15 15 15 15 15 15 15 15 15 15 15 15 15 15 15 15 15 15 14 15 14 14 14 14 14 14 14 14 14 14 14 14
16 16 16 16 16 15 15 15 15 15 15 15 15 15 15 15 15 15 15 15 15 14 14 14 14 14 14 14 14 14 14 14 14 14 14 14 14 14 14 14 14 14 14
16 16 16 16 16 15 15 15 15 15 15 15 15 14 14 15 15 14 14 14 14 14 14 14 14 14 14 14 14 14 14 14 14 14 14 13 13 13 14 14 14 14 14
16 16 16 15 15 15 15 15 15 15 15 15 15 14 14 14 14 14 14 14 14 14 14 14 14 14 14 14 14 14 14 14 14 13 13 13 13 13 13 13 13 13 13
16 16 15 15 15 15 15 15 15 15 15 15 15 14 14 14 14 14 14 14 14 14 14 14 14 14 14 14 13 13 13 13 13 13 13 13 13 13 13 13 13 13 13
16 15 15 15 15 15 15 15 15 15 14 14 14 14 14 14 13 13 13 13 13 13 13 13 13 13 13 13 13 13 13 13 13 13 13 13 13 13 13 13 13 13 13
15 15 15 15 15 15 15 14 14 14 14 14 14 14 14 13 13 13 13 13 13 13 13 13 13 13 13 13 13 13 13 13 13 13 13 13 13 13 12 12 12 12 13
15 15 15 15 15 15 15 14 14 14 14 14 14 14 14 13 13 13 13 13 13 13 13 13 13 13 13 13 13 13 13 12 12 13 12 12 12 12 12 12 12 12 12
15 15 15 15 15 15 14 14 14 14 14 14 14 14 13 13 13 13 12 12 13 12 12 12 13 13 12 12 12 12 12 12 12 12 12 12 12 12 12 12 12 12 12
15 15 15 15 15 14 14 14 14 14 14 14 14 13 13 13 13 13 12 12 12 12 12 12 12 12 12 12 12 12 12 12 12 12 12 12 12 12 12 11 11 11 11
15 15 15 14 14 14 14 14 14 14 14 13 13 13 13 13 13 13 12 12 12 12 12 12 12 12 12 12 12 12 12 12 12 12 12 12 12 12 11 11 11 11 11
15 15 14 14 14 14 14 14 14 13 13 13 13 13 13 13 12 12 12 12 11 11 11 11 11 11 11 11 11 11 11 11 12 12 12 12 12 12 11 11 11 11 11
15 14 14 14 14 14 14 14 13 13 13 13 13 13 13 12 12 12 12 12 12 11 11 11 11 11 11 11 11 11 11 11 11 11 11 11 11 11 11 11 11 11 11
15 14 14 14 14 14 14 13 13 13 13 13 13 13 12 12 12 12 11 11 11 11 11 11 11 11 11 11 11 11 11 11 11 11 11 11 11 11 11 11 11 11 11
15 14 14 14 14 14 13 13 13 13 13 13 13 12 12 12 12 11 11 11 11 11 11 11 10 10 10 11 11 11 11 11 11 11 11 11 11 11 11 11 11 11 11
15 14 14 14 14 13 13 13 13 13 13 13 12 12 12 12 12 11 11 11 11 11 11 10 10 10 10 10 10 10 11 11 10 10 10 10 10 10 10 10 10 10 10
14 14 14 14 13 13 13 13 13 13 12 12 12 12 12 11 11 11 11 11 11 10 10 10 10 10 10 10 10 10 10 10 10 10 10 10 10 10 10 10 10 10 10
14 14 14 14 13 13 13 13 13 12 12 12 12 12 11 11 11 11 11 11 10 10 10 10 10 10 10 10 10 10 10 10 10 10 10 10 10 10 10 10 10 10 10
14 14 14 13 13 13 13 13 12 12 12 12 12 11 11 11 11 11 10 10 10 10 10 10 10 10 10 9 9 9 10 10 10 10 10 10 10 10 10 10 10 10 9
13 13 13 13 13 13 12 12 12 12 12 11 11 11 11 11 11 10 10 10 10 10 10 10 9 9 9 9 9 9 9 9 9 9 9 10 10 9 10 9 9 9 9
13 13 13 13 12 12 12 12 12 12 12 11 11 11 11 11 10 10 10 10 10 9 9 9 9 9 9 9 9 9 9 9 9 9 9 9 9 9 9 9 9 9 9
13 13 13 12 12 12 12 12 12 11 11 11 11 11 11 11 10 10 10 10 9 9 9 9 9 9 9 9 8 8 8 8 9 9 8 9 9 9 9 9 9 9 9
12 12 12 12 12 12 11 11 11 11 11 10 10 10 10 10 10 10 9 9 9 9 9 9 8 8 8 8 8 8 8 8 8 8 8 8 8 9 9 9 9 9 8
12 11 11 11 11 11 11 11 10 10 10 10 10 10 10 9 9 9 9 9 9 9 9 8 8 8 8 8 8 8 8 7 7 8 8 8 8 8 8 9 9 8 8
Wind_Speed
3 2 2 3 3 3 3 3 4 5 5 5 6 6 5 5 5 5 5 7 7 7 8 8 8 8 8 8 8 8 8 8 8 6 7 6 7 7 7 7 6 6 5
4 3 2 2 2 3 4 4 4 4 3 4 4 5 5 5 5 5 5 5 6 7 7 7 7 7 7 8 7 7 7 7 7 7 7 7 7 6 6 6 6 5 5
5 4 3 2 2 4 5 5 5 5 4 4 4 3 3 4 4 4 4 4 5 5 6 6 6 6 6 6 7 7 7 7 7 7 8 7 7 7 6 5 5 5 4
7 5 3 2 3 5 4 4 4 4 4 3 3 2 2 3 3 4 4 4 4 4 4 4 4 5 5 5 5 5 6 6 7 7 7 6 6 6 6 5 5 5 5
7 6 3 3 5 4 3 4 3 3 3 3 2 2 2 2 2 3 3 3 4 4 4 4 4 4 4 4 4 4 5 5 6 6 6 6 6 6 6 5 5 5 5
7 6 4 4 4 4 3 3 4 3 3 2 3 3 3 2 2 2 2 3 3 3 4 3 4 4 4 3 3 3 4 4 4 5 5 5 5 5 5 5 5 5 5
6 6 4 3 4 4 3 4 3 4 2 2 3 3 4 4 3 2 2 3 3 2 3 4 4 3 3 3 4 3 3 3 3 4 4 4 4 4 4 4 4 4 4
6 5 4 3 4 4 4 4 3 2 1 2 2 2 2 4 4 3 2 2 2 2 3 3 4 4 4 4 3 3 2 2 3 3 3 3 3 3 3 3 3 4 4
6 5 5 4 4 4 4 3 4 4 2 1 2 3 3 1 2 3 3 2 2 2 2 3 3 3 3 3 3 2 1 2 2 2 2 2 2 1 2 2 2 3 3
5 5 5 5 4 3 4 3 3 3 3 1 1 1 2 3 2 1 3 3 2 2 1 2 2 2 3 3 3 3 2 2 2 2 1 1 1 1 1 1 2 2 3
3 5 5 5 4 3 3 3 3 3 3 3 2 1 2 2 2 2 1 3 3 2 2 1 1 2 1 2 2 2 3 2 1 1 1 1 0 1 1 1 1 2 2
2 3 4 4 4 3 3 3 3 4 3 3 2 2 2 2 1 2 1 1 2 2 2 1 1 1 1 1 1 1 1 1 1 0 1 1 1 2 2 2 2 3 3
2 3 4 3 3 3 4 4 4 3 3 3 3 2 2 2 2 2 2 1 1 2 2 2 1 0 0 1 1 1 1 1 1 1 1 1 2 2 3 3 4 4 4
4 4 4 4 4 4 4 4 3 2 2 2 2 2 1 1 2 3 3 2 1 2 2 2 2 1 1 1 2 2 1 2 2 2 2 2 2 2 3 4 4 5 4
4 5 5 4 4 4 4 4 3 2 2 2 2 2 1 1 1 2 2 3 3 1 2 2 2 2 1 1 2 2 2 2 2 2 2 3 2 3 3 4 4 5 5
4 5 4 4 4 4 4 4 3 3 3 2 1 2 1 1 1 1 2 2 2 3 2 2 2 2 2 1 2 2 3 3 3 3 3 3 3 3 4 4 5 5 5
5 5 5 5 5 4 4 5 4 4 4 2 1 2 1 1 1 1 1 1 1 2 2 2 2 2 1 2 1 2 2 2 2 3 3 3 4 4 5 5 5 5 6
5 5 5 5 5 5 4 5 5 4 4 3 2 2 2 2 2 1 2 2 1 1 2 1 1 1 2 2 2 2 2 2 2 3 4 4 5 5 5 5 6 6 6
5 5 5 6 5 5 5 5 5 4 4 4 4 4 3 3 2 2 2 2 1 1 1 1 1 1 2 2 2 2 2 2 2 3 4 5 6 6 6 6 6 6 7
5 5 5 6 6 6 5 5 4 4 3 3 3 4 4 4 4 4 3 3 2 2 1 1 0 1 2 2 1 1 2 2 3 3 4 4 5 6 6 6 7 7 7
4 4 4 4 4 5 5 5 5 4 4 3 2 3 4 4 5 4 3 3 3 2 2 1 0 1 2 1 1 1 2 3 3 2 2 3 3 4 5 6 7 7 7
3 3 4 3 3 3 5 7 6 5 4 4 4 3 2 3 3 3 4 4 5 4 3 2 2 2 3 2 1 1 1 1 3 2 2 3 2 3 4 5 6 7 7
3 3 3 3 3 2 4 6 7 5 5 5 5 4 2 2 2 2 2 2 2 3 5 5 4 4 3 3 2 1 1 2 3 3 1 3 3 3 4 6 7 7 8
4 3 3 3 3 2 3 4 6 4 3 3 4 4 4 3 3 4 3 1 1 1 3 3 5 5 4 4 4 3 3 2 3 2 0 2 3 3 4 5 7 7 8
3 3 3 3 3 2 3 5 5 3 2 2 2 2 3 3 4 5 4 3 1 2 2 2 3 3 2 2 2 2 1 1 2 3 1 1 3 3 3 3 5 6 7
4 3 3 3 3 3 2 4 5 3 3 2 1 1 3 3 3 4 4 4 3 3 1 1 1 1 1 1 1 2 3 2 1 2 2 1 2 2 3 3 3 4 6
Wind_Direction
118 108 104 100 97 93 93 78 79 78 76 77 81 81 82 81 81 74 68 73 81 90 93 95 92 89 86 85 87 86 88 84 82 89 88 88 90 87 83 82 83 78 75
128 116 100 93 98 100 106 102 90 82 74 72 65 74 81 86 87 83 78 76 83 88 90 98 97 89 84 79 82 83 86 85 82 82 85 86 89 89 81 76 72 71 68
127 119 109 100 99 105 102 93 82 82 76 70 62 62 77 80 91 92 86 80 82 84 93 98 101 96 91 86 81 81 86 88 87 84 80 78 83 81 76 72 64 60 59
125 116 108 106 107 101 100 97 88 83 72 68 64 49 59 68 78 89 89 85 85 85 86 93 97 103 101 90 84 82 86 88 89 85 82 77 79 78 72 67 64 65 59
123 116 105 108 107 95 87 98 87 99 94 79 76 62 44 48 61 82 81 83 90 94 87 82 86 94 102 101 90 82 85 89 90 87 84 81 80 78 72 68 66 67 61
119 114 106 99 103 92 82 87 90 80 91 88 79 55 29 24 41 61 70 76 86 90 90 84 79 78 81 89 94 94 86 97 96 88 86 87 84 79 75 69 67 69 64
122 113 107 103 104 107 115 111 100 87 68 72 72 40 18 19 24 29 54 67 67 79 85 81 78 76 67 69 75 83 90 104 106 93 89 88 87 80 74 69 66 64 58
127 127 124 122 116 111 104 104 105 98 68 69 106 88 30 5 3 6 14 52 54 61 66 78 89 83 75 75 77 80 77 108 127 106 96 89 89 81 71 62 54 50 45
127 128 134 130 127 127 134 135 129 122 118 21 75 127 132 203 311 345 357 18 27 40 34 73 87 89 81 82 84 82 87 119 128 111 99 87 82 88 70 49 43 37 29
133 136 135 133 131 134 142 156 138 133 132 135 26 55 130 153 148 327 336 351 1 23 13 51 82 90 84 82 75 66 70 119 129 109 104 95 82 79 84 48 30 21 14
145 143 141 135 136 142 147 140 128 125 131 143 147 122 79 64 88 138 268 325 349 340 347 16 79 89 92 91 92 65 64 69 90 106 50 31 15 1 333 330 335 339 340
152 150 144 142 147 150 151 146 138 129 123 122 127 131 139 135 157 141 170 271 302 308 324 345 30 79 112 116 127 86 94 59 38 23 16 345 325 311 303 286 286 297 302
173 179 162 158 157 153 148 138 135 136 135 131 135 142 151 165 159 148 142 184 293 309 334 343 326 125 205 228 224 228 222 299 307 326 308 321 316 308 310 303 287 285 285
188 180 170 166 157 150 144 141 134 143 132 136 141 141 135 175 154 151 155 151 91 336 340 308 321 313 306 271 262 229 245 268 280 300 301 309 303 306 311 310 304 291 282
177 170 169 166 160 150 148 143 137 147 133 142 160 156 145 170 150 149 146 155 154 186 271 285 298 295 295 262 268 228 241 266 282 295 304 316 301 294 304 313 318 313 293
175 162 162 159 156 153 148 141 144 149 135 156 164 141 131 148 143 130 145 152 153 163 211 254 255 279 293 306 284 237 241 275 277 283 293 296 296 293 296 302 302 312 305
170 168 168 162 163 161 156 151 157 150 145 150 151 142 150 121 116 119 122 122 130 144 174 264 282 299 305 301 314 279 269 263 273 286 291 296 300 298 294 296 300 306 306
177 174 169 164 172 169 163 160 161 153 152 155 163 150 163 129 112 115 118 124 139 155 160 216 287 320 297 284 294 302 307 285 264 281 284 294 305 301 292 292 293 295 299
171 169 168 171 174 171 167 169 161 157 161 168 171 169 174 148 142 149 137 140 152 131 133 167 256 292 297 313 323 308 313 306 300 295 282 284 293 295 294 290 294 295 299
168 168 172 174 172 168 167 167 154 154 162 175 179 178 179 177 178 173 168 169 151 124 112 124 243 298 295 305 344 305 315 309 300 313 298 290 295 295 295 295 295 296 296
161 168 161 165 169 166 171 163 159 159 161 172 176 180 185 183 185 183 181 177 157 146 137 146 213 317 304 321 294 275 288 305 298 309 305 303 307 301 296 293 293 292 292
158 151 156 161 172 191 184 173 164 164 172 175 183 190 185 176 178 170 166 167 166 167 179 181 210 229 256 259 274 276 292 344 307 306 305 295 313 286 288 280 290 291 290
159 156 161 158 168 192 179 177 174 167 175 182 184 181 182 183 158 164 154 140 170 183 185 184 198 223 231 232 216 242 243 240 252 276 304 287 300 286 288 290 295 291 291
169 169 171 170 168 186 175 166 157 149 160 178 187 184 176 184 185 160 152 134 192 234 219 198 202 224 230 221 205 214 227 257 281 286 227 265 283 276 290 288 294 292 294
170 174 171 164 163 183 159 155 135 131 141 164 184 179 174 191 193 163 152 161 214 277 254 226 217 218 227 216 160 124 63 14 304 294 270 245 280 290 286 282 295 299 297
177 172 169 172 172 181 168 150 137 136 143 164 172 190 188 186 181 165 163 170 198 243 270 296 318 340 10 358 163 167 181 194 261 286 286 274 287 323 310 291 297 312 306
Height
1530 1530 1530 1529 1529 1529 1529 1529 1529 1529 1528 1528 1528 1528 1528 1528 1528 1528 1528 1528 1528 1527 1527 1527 1527 1527 1526 1526 1527 1527 1527 1527 1526 1527 1527 1527 1526 1527 1528 1528 1528 1528 1528
1531 1531 1531 1530 1530 1530 1530 1530 1530 1530 1530 1530 1530 1529 1529 1529 1529 1529 1529 1529 1529 1528 1528 1528 1528 1528 1527 1527 1527 1527 1527 1527 1526 1526 1526 1526 1527 1527 1527 1527 1527 1527 1527
1532 1531 1531 1531 1531 1531 1531 1531 1531 1531 1531 1531 1531 1531 1531 1531 1530 1530 1530 1529 1529 1529 1529 1529 1529 1528 1528 1528 1528 1528 1527 1527 1527 1526 1527 1527 1527 1527 1527 1527 1527 1527 1527
1532 1532 1532 1532 1532 1532 1532 1531 1531 1531 1531 1531 1531 1531 1531 1531 1531 1531 1531 1530 1530 1530 1530 1530 1529 1529 1529 1528 1528 1528 1528 1527 1527 1527 1527 1527 1527 1527 1527 1527 1527 1527 1527
1533 1533 1532 1532 1532 1532 1532 1532 1532 1532 1532 1532 1532 1532 1532 1532 1532 1532 1532 1531 1531 1531 1531 1530 1530 1530 1529 1529 1529 1528 1528 1527 1527 1527 1527 1527 1527 1526 1526 1526 1526 1526 1526
1532 1532 1532 1533 1532 1532 1532 1533 1532 1533 1533 1532 1532 1532 1532 1532 1533 1532 1532 1532 1532 1532 1531 1531 1531 1530 1530 1529 1529 1528 1528 1528 1527 1527 1527 1527 1526 1526 1526 1526 1526 1525 1525
1532 1532 1532 1533 1533 1533 1533 1533 1533 1533 1533 1533 1532 1532 1533 1533 1533 1533 1533 1532 1532 1532 1532 1531 1531 1530 1530 1529 1529 1529 1528 1528 1527 1527 1527 1526 1526 1526 1526 1526 1525 1525 1525
1532 1532 1532 1533 1533 1533 1533 1533 1533 1533 1533 1533 1533 1532 1533 1534 1533 1533 1533 1533 1532 1532 1531 1531 1530 1530 1530 1529 1529 1528 1528 1528 1527 1527 1526 1526 1526 1525 1525 1525 1524 1524 1524
1532 1532 1532 1532 1532 1532 1532 1533 1533 1533 1532 1533 1533 1533 1532 1532 1533 1533 1532 1532 1532 1532 1531 1530 1530 1530 1529 1529 1529 1528 1528 1527 1527 1526 1526 1526 1525 1525 1524 1524 1524 1523 1523
1531 1531 1531 1532 1532 1532 1532 1532 1532 1532 1532 1532 1532 1532 1533 1532 1532 1532 1532 1532 1532 1531 1531 1530 1530 1529 1529 1528 1528 1528 1527 1527 1526 1526 1525 1525 1525 1524 1524 1523 1523 1522 1522
1530 1530 1531 1531 1531 1531 1531 1532 1532 1532 1532 1532 1531 1531 1531 1531 1531 1531 1530 1530 1530 1530 1530 1529 1529 1529 1528 1528 1527 1527 1526 1526 1525 1525 1525 1524 1524 1523 1523 1522 1522 1521 1520
1529 1529 1529 1530 1530 1530 1530 1531 1531 1531 1531 1531 1531 1530 1530 1530 1530 1530 1530 1529 1529 1529 1529 1529 1528 1528 1527 1527 1527 1526 1525 1525 1524 1524 1523 1523 1522 1522 1521 1521 1520 1520 1519
1526 1527 1528 1528 1529 1529 1529 1530 1530 1530 1530 1529 1529 1529 1529 1529 1529 1529 1529 1528 1528 1528 1528 1528 1528 1527 1527 1526 1526 1525 1525 1524 1523 1523 1522 1521 1521 1521 1520 1519 1519 1518 1517
1524 1525 1526 1527 1527 1528 1528 1528 1528 1528 1528 1528 1528 1528 1528 1528 1528 1528 1528 1527 1527 1527 1527 1527 1526 1526 1525 1525 1524 1524 1523 1523 1522 1521 1521 1520 1519 1519 1518 1517 1517 1516 1515
1523 1523 1524 1525 1525 1526 1526 1527 1527 1527 1527 1527 1527 1526 1526 1526 1526 1526 1526 1526 1527 1525 1525 1525 1525 1524 1524 1523 1523 1522 1522 1521 1520 1520 1519 1518 1518 1517 1516 1516 1515 1514 1514
1521 1521 1522 1523 1523 1524 1524 1525 1525 1525 1525 1525 1525 1524 1524 1524 1524 1524 1524 1524 1524 1524 1523 1523 1523 1523 1522 1522 1521 1520 1520 1519 1519 1518 1517 1517 1516 1515 1515 1514 1513 1512 1512
1518 1519 1520 1521 1521 1522 1522 1523 1523 1523 1523 1523 1523 1523 1522 1522 1522 1522 1522 1522 1522 1522 1522 1521 1521 1521 1521 1520 1519 1518 1518 1517 1517 1516 1516 1515 1514 1513 1512 1512 1511 1510 1510
1516 1517 1518 1519 1519 1520 1520 1521 1521 1521 1521 1521 1521 1520 1520 1520 1520 1520 1520 1520 1520 1520 1520 1519 1519 1519 1518 1517 1517 1516 1515 1515 1515 1514 1513 1513 1512 1511 1511 1510 1509 1508 1507
1513 1514 1515 1516 1516 1517 1518 1518 1519 1519 1519 1518 1518 1518 1518 1518 1518 1518 1518 1518 1518 1518 1518 1517 1516 1516 1516 1515 1514 1514 1513 1513 1512 1512 1511 1511 1510 1509 1508 1507 1506 1505 1505
1510 1511 1512 1513 1514 1515 1515 1516 1516 1516 1516 1516 1516 1516 1516 1516 1515 1515 1515 1515 1515 1515 1515 1515 1514 1514 1513 1513 1512 1511 1511 1510 1510 1510 1509 1508 1508 1507 1506 1505 1504 1503 1502
1508 1509 1510 1511 1511 1512 1512 1513 1513 1513 1513 1513 1513 1513 1513 1513 1513 1513 1513 1513 1513 1513 1513 1512 1512 1511 1511 1510 1510 1509 1509 1508 1507 1507 1506 1506 1505 1504 1503 1502 1501 1500 1499
1505 1506 1506 1507 1508 1509 1510 1510 1510 1510 1510 1510 1510 1510 1511 1511 1511 1511 1511 1511 1511 1511 1510 1510 1509 1509 1508 1508 1507 1507 1506 1505 1504 1505 1504 1503 1502 1501 1500 1499 1498 1497 1496
1502 1502 1503 1504 1505 1505 1506 1506 1507 1507 1507 1507 1507 1507 1508 1508 1508 1508 1508 1508 1508 1508 1508 1508 1507 1506 1506 1506 1505 1505 1504 1503 1502 1502 1501 1499 1499 1498 1497 1496 1495 1494 1493
1498 1499 1500 1500 1501 1502 1503 1503 1504 1504 1504 1504 1504 1504 1505 1505 1505 1505 1505 1505 1505 1505 1504 1504 1504 1504 1504 1504 1503 1503 1502 1501 1500 1499 1499 1496 1495 1495 1494 1493 1492 1491 1490
1494 1495 1496 1496 1497 1498 1499 1500 1500 1500 1500 1501 1501 1501 1501 1501 1502 1502 1502 1502 1502 1502 1502 1501 1501 1501 1501 1501 1501 1500 1499 1498 1496 1496 1495 1494 1492 1491 1490 1489 1489 1488 1486
1491 1492 1492 1493 1494 1495 1495 1496 1497 1497 1497 1497 1497 1497 1497 1498 1498 1498 1498 1498 1498 1498 1498 1498 1498 1498 1498 1497 1497 1497 1496 1495 1494 1493 1492 1491 1490 1488 1486 1485 1485 1484 1482